Time,TemperatureF,DewpointF,PressureIn,WindDirection,WindDirectionDegrees,WindSpeedMPH,WindSpeedGustMPH,Humidity,HourlyPrecipIn,Conditions,Clouds,dailyrainin,SoftwareType,DateUTC
2013-05-26 00:02:00,73.0,67.0,30.13,SE,136,327.0,327.0,82,0.00,,,0.00,,2013-05-26 05:02:00,
2013-05-26 00:12:00,73.0,67.0,30.13,SE,136,327.0,327.0,82,0.00,,,0.00,,2013-05-26 05:12:00,
2013-05-26 00:22:00,73.0,67.0,30.13,SE,136,327.0,327.0,82,0.00,,,0.00,,2013-05-26 05:22:00,
2013-05-26 00:32:00,72.0,67.0,30.12,SE,136,0.0,0.0,83,0.00,,,0.00,,2013-05-26 05:32:00,
2013-05-26 00:42:00,72.0,67.0,30.12,SE,136,0.0,0.0,83,0.00,,,0.00,,2013-05-26 05:42:00,
2013-05-26 00:52:00,72.0,67.0,30.12,ENE,73,1.0,2.0,84,0.00,,,0.00,,2013-05-26 05:52:00,
2013-05-26 01:01:00,72.0,67.0,30.12,ENE,71,0.0,2.0,84,0.00,,,0.00,,2013-05-26 06:01:00,
2013-05-26 01:12:00,72.0,67.0,30.12,ENE,71,0.0,2.0,84,0.00,,,0.00,,2013-05-26 06:12:00,
2013-05-26 01:22:00,72.0,67.0,30.11,ENE,59,1.0,2.0,85,0.00,,,0.00,,2013-05-26 06:22:00,
2013-05-26 01:32:00,72.0,68.0,30.12,NE,52,1.0,4.0,86,0.00,,,0.00,,2013-05-26 06:32:00,
2013-05-26 01:42:00,72.0,68.0,30.12,NE,52,1.0,4.0,86,0.00,,,0.00,,2013-05-26 06:42:00,
2013-05-26 01:52:00,72.0,68.0,30.12,NE,52,0.0,1.0,86,0.00,,,0.00,,2013-05-26 06:52:00,
2013-05-26 02:01:00,73.0,69.0,30.12,NE,51,2.0,6.0,87,0.00,,,0.00,,2013-05-26 07:01:00,
2013-05-26 02:11:00,73.0,69.0,30.12,NE,51,2.0,6.0,87,0.00,,,0.00,,2013-05-26 07:11:00,
2013-05-26 02:21:00,72.0,68.0,30.11,ENE,75,2.0,6.0,87,0.00,,,0.00,,2013-05-26 07:21:00,
2013-05-26 02:31:00,72.0,68.0,30.11,ENE,63,0.0,2.0,88,0.00,,,0.00,,2013-05-26 07:31:00,
2013-05-26 02:42:00,72.0,68.0,30.11,ENE,63,0.0,2.0,88,0.00,,,0.00,,2013-05-26 07:42:00,
2013-05-26 02:52:00,73.0,69.0,30.11,ENE,63,0.0,1.0,88,0.00,,,0.00,,2013-05-26 07:52:00,
2013-05-26 03:01:00,73.0,69.0,30.11,ENE,63,0.0,1.0,88,0.00,,,0.00,,2013-05-26 08:01:00,
2013-05-26 03:12:00,73.0,69.0,30.11,ENE,63,0.0,1.0,88,0.00,,,0.00,,2013-05-26 08:12:00,
2013-05-26 03:21:00,73.0,69.0,30.12,ENE,63,0.0,1.0,88,0.00,,,0.00,,2013-05-26 08:21:00,
2013-05-26 03:32:00,73.0,70.0,30.12,ENE,63,327.0,327.0,89,0.00,,,0.00,,2013-05-26 08:32:00,
2013-05-26 03:42:00,73.0,70.0,30.12,ENE,63,327.0,327.0,89,0.00,,,0.00,,2013-05-26 08:42:00,
2013-05-26 03:53:00,73.0,70.0,30.11,ENE,63,0.0,0.0,89,0.00,,,0.00,,2013-05-26 08:53:00,
2013-05-26 04:01:00,73.0,70.0,30.12,NW,319,0.0,2.0,90,0.00,,,0.00,,2013-05-26 09:01:00,
2013-05-26 04:11:00,73.0,70.0,30.12,NW,319,0.0,2.0,90,0.00,,,0.00,,2013-05-26 09:11:00,
2013-05-26 04:21:00,73.0,70.0,30.12,NW,319,0.0,1.0,90,0.00,,,0.00,,2013-05-26 09:21:00,
2013-05-26 04:33:00,73.0,70.0,30.11,East,95,3.0,5.0,90,0.00,,,0.00,,2013-05-26 09:33:00,
2013-05-26 04:42:00,73.0,70.0,30.11,East,95,3.0,5.0,90,0.00,,,0.00,,2013-05-26 09:42:00,
2013-05-26 04:52:00,74.0,71.0,30.11,SSE,153,0.0,2.0,91,0.00,,,0.00,,2013-05-26 09:52:00,
2013-05-26 05:02:00,74.0,71.0,30.11,SSE,153,0.0,0.0,91,0.00,,,0.00,,2013-05-26 10:02:00,
2013-05-26 05:12:00,74.0,71.0,30.11,SSE,153,0.0,0.0,91,0.00,,,0.00,,2013-05-26 10:12:00,
2013-05-26 05:23:00,74.0,71.0,30.11,SSE,153,0.0,1.0,91,0.00,,,0.00,,2013-05-26 10:23:00,
2013-05-26 05:32:00,74.0,71.0,30.11,SSE,153,0.0,0.0,91,0.00,,,0.00,,2013-05-26 10:32:00,
2013-05-26 05:42:00,74.0,71.0,30.11,SSE,153,0.0,0.0,91,0.00,,,0.00,,2013-05-26 10:42:00,
2013-05-26 05:52:00,73.0,71.0,30.12,SSE,153,0.0,0.0,92,0.00,,,0.00,,2013-05-26 10:52:00,
2013-05-26 06:03:00,73.0,71.0,30.12,SSE,153,0.0,1.0,92,0.00,,,0.00,,2013-05-26 11:03:00,
2013-05-26 06:11:00,73.0,71.0,30.12,SSE,153,0.0,1.0,92,0.00,,,0.00,,2013-05-26 11:11:00,
2013-05-26 06:22:00,73.0,71.0,30.12,SSE,153,0.0,1.0,93,0.00,,,0.00,,2013-05-26 11:22:00,
2013-05-26 06:32:00,73.0,71.0,30.12,SSE,153,0.0,0.0,93,0.00,,,0.00,,2013-05-26 11:32:00,
2013-05-26 06:42:00,73.0,71.0,30.12,SSE,153,0.0,0.0,93,0.00,,,0.00,,2013-05-26 11:42:00,
2013-05-26 06:52:00,73.0,71.0,30.13,SSE,153,0.0,0.0,94,0.00,,,0.00,,2013-05-26 11:52:00,
2013-05-26 07:02:00,73.0,71.0,30.13,ESE,123,0.0,1.0,94,0.00,,,0.00,,2013-05-26 12:02:00,
2013-05-26 07:12:00,73.0,71.0,30.13,ESE,123,0.0,1.0,94,0.00,,,0.00,,2013-05-26 12:12:00,
2013-05-26 07:21:00,73.0,71.0,30.12,East,100,327.0,327.0,94,0.00,,,0.00,,2013-05-26 12:21:00,
2013-05-26 07:32:00,74.0,72.0,30.13,East,82,0.0,2.0,94,0.00,,,0.00,,2013-05-26 12:32:00,
2013-05-26 07:42:00,74.0,72.0,30.13,East,82,0.0,2.0,94,0.00,,,0.00,,2013-05-26 12:42:00,
2013-05-26 07:52:00,74.0,72.0,30.13,SSE,164,0.0,1.0,94,0.00,,,0.00,,2013-05-26 12:52:00,
2013-05-26 08:02:00,74.0,72.0,30.13,South,170,0.0,1.0,93,0.00,,,0.00,,2013-05-26 13:02:00,
2013-05-26 08:11:00,74.0,72.0,30.13,South,170,0.0,1.0,93,0.00,,,0.00,,2013-05-26 13:11:00,
2013-05-26 08:21:00,75.0,73.0,30.13,South,173,0.0,1.0,93,0.00,,,0.00,,2013-05-26 13:21:00,
2013-05-26 08:32:00,76.0,74.0,30.13,SSW,196,0.0,4.0,92,0.00,,,0.00,,2013-05-26 13:32:00,
2013-05-26 08:42:00,76.0,74.0,30.13,SSW,196,0.0,4.0,92,0.00,,,0.00,,2013-05-26 13:42:00,
2013-05-26 08:52:00,76.0,73.0,30.14,SSW,204,0.0,4.0,91,0.00,,,0.00,,2013-05-26 13:52:00,
2013-05-26 09:02:00,77.0,73.0,30.14,SSW,202,0.0,6.0,88,0.00,,,0.00,,2013-05-26 14:02:00,
2013-05-26 09:11:00,77.0,73.0,30.14,SSW,202,0.0,6.0,88,0.00,,,0.00,,2013-05-26 14:11:00,
2013-05-26 09:21:00,78.0,73.0,30.14,South,180,1.0,8.0,86,0.00,,,0.00,,2013-05-26 14:21:00,
2013-05-26 09:32:00,79.0,74.0,30.14,SSW,192,1.0,5.0,84,0.00,,,0.00,,2013-05-26 14:32:00,
2013-05-26 09:42:00,79.0,74.0,30.14,SSW,192,1.0,5.0,84,0.00,,,0.00,,2013-05-26 14:42:00,
2013-05-26 09:52:00,79.0,73.0,30.14,SE,138,1.0,9.0,83,0.00,,,0.00,,2013-05-26 14:52:00,
2013-05-26 10:01:00,79.0,73.0,30.14,WSW,240,1.0,5.0,82,0.00,,,0.00,,2013-05-26 15:01:00,
2013-05-26 10:12:00,79.0,73.0,30.14,WSW,240,1.0,5.0,82,0.00,,,0.00,,2013-05-26 15:12:00,
2013-05-26 10:22:00,80.0,73.0,30.14,SE,131,3.0,12.0,79,0.00,,,0.00,,2013-05-26 15:22:00,
2013-05-26 10:33:00,82.0,72.0,30.14,SSW,197,3.0,12.0,73,0.00,,,0.00,,2013-05-26 15:33:00,
2013-05-26 10:43:00,82.0,72.0,30.14,SSW,197,3.0,12.0,73,0.00,,,0.00,,2013-05-26 15:43:00,
2013-05-26 10:53:00,82.0,72.0,30.14,East,97,3.0,10.0,73,0.00,,,0.00,,2013-05-26 15:53:00,
2013-05-26 11:03:00,81.0,72.0,30.14,SSW,212,2.0,12.0,74,0.00,,,0.00,,2013-05-26 16:03:00,
2013-05-26 11:12:00,81.0,72.0,30.14,SSW,212,2.0,12.0,74,0.00,,,0.00,,2013-05-26 16:12:00,
2013-05-26 11:23:00,82.0,72.0,30.14,SW,217,5.0,10.0,71,0.00,,,0.00,,2013-05-26 16:23:00,
2013-05-26 11:33:00,83.0,72.0,30.14,SSE,160,4.0,11.0,70,0.00,,,0.00,,2013-05-26 16:33:00,
2013-05-26 11:42:00,83.0,72.0,30.14,SSE,160,4.0,11.0,70,0.00,,,0.00,,2013-05-26 16:42:00,
2013-05-26 11:52:00,84.0,72.0,30.14,South,184,2.0,11.0,67,0.00,,,0.00,,2013-05-26 16:52:00,
2013-05-26 12:02:00,85.0,70.0,30.14,SSW,209,4.0,9.0,62,0.00,,,0.00,,2013-05-26 17:02:00,
2013-05-26 12:11:00,85.0,70.0,30.14,SSW,209,4.0,9.0,62,0.00,,,0.00,,2013-05-26 17:11:00,
2013-05-26 12:22:00,85.0,69.0,30.14,South,172,3.0,9.0,59,0.00,,,0.00,,2013-05-26 17:22:00,
2013-05-26 12:32:00,85.0,70.0,30.14,SSE,168,1.0,14.0,62,0.00,,,0.00,,2013-05-26 17:32:00,
2013-05-26 12:42:00,85.0,70.0,30.14,SSE,168,1.0,14.0,62,0.00,,,0.00,,2013-05-26 17:42:00,
2013-05-26 12:52:00,85.0,70.0,30.14,South,173,2.0,10.0,60,0.00,,,0.00,,2013-05-26 17:52:00,
2013-05-26 13:01:00,85.0,66.0,30.14,SSW,202,6.0,18.0,54,0.00,,,0.00,,2013-05-26 18:01:00,
2013-05-26 13:12:00,85.0,66.0,30.14,SSW,202,6.0,18.0,54,0.00,,,0.00,,2013-05-26 18:12:00,
2013-05-26 13:21:00,85.0,70.0,30.14,SSW,193,2.0,13.0,60,0.00,,,0.00,,2013-05-26 18:21:00,
2013-05-26 13:32:00,86.0,69.0,30.14,SSE,155,6.0,11.0,58,0.00,,,0.00,,2013-05-26 18:32:00,
2013-05-26 13:42:00,86.0,69.0,30.14,SSE,155,6.0,11.0,58,0.00,,,0.00,,2013-05-26 18:42:00,
2013-05-26 13:52:00,87.0,70.0,30.13,SW,221,4.0,10.0,57,0.00,,,0.00,,2013-05-26 18:52:00,
2013-05-26 14:01:00,86.0,69.0,30.13,SSW,196,2.0,14.0,58,0.00,,,0.00,,2013-05-26 19:01:00,
2013-05-26 14:11:00,86.0,69.0,30.13,SSW,196,2.0,14.0,58,0.00,,,0.00,,2013-05-26 19:11:00,
2013-05-26 14:22:00,86.0,68.0,30.13,SSW,212,4.0,12.0,55,0.00,,,0.00,,2013-05-26 19:22:00,
2013-05-26 14:32:00,86.0,69.0,30.12,SSE,150,8.0,16.0,57,0.00,,,0.00,,2013-05-26 19:32:00,
2013-05-26 14:42:00,86.0,69.0,30.12,SSE,150,8.0,16.0,57,0.00,,,0.00,,2013-05-26 19:42:00,
2013-05-26 14:52:00,87.0,69.0,30.12,SSW,192,6.0,12.0,55,0.00,,,0.00,,2013-05-26 19:52:00,
2013-05-26 15:02:00,86.0,69.0,30.11,South,175,2.0,15.0,57,0.00,,,0.00,,2013-05-26 20:02:00,
2013-05-26 15:11:00,86.0,69.0,30.11,South,175,2.0,15.0,57,0.00,,,0.00,,2013-05-26 20:11:00,
2013-05-26 15:22:00,86.0,69.0,30.11,SE,126,3.0,11.0,57,0.00,,,0.00,,2013-05-26 20:22:00,
2013-05-26 15:32:00,85.0,69.0,30.10,South,181,8.0,14.0,59,0.00,,,0.00,,2013-05-26 20:32:00,
2013-05-26 15:42:00,85.0,69.0,30.10,South,181,8.0,14.0,59,0.00,,,0.00,,2013-05-26 20:42:00,
2013-05-26 15:52:00,85.0,70.0,30.10,South,186,9.0,18.0,60,0.00,,,0.00,,2013-05-26 20:52:00,
2013-05-26 16:02:00,86.0,70.0,30.09,SSW,205,8.0,18.0,60,0.00,,,0.00,,2013-05-26 21:02:00,
2013-05-26 16:11:00,86.0,70.0,30.09,SSW,205,8.0,18.0,60,0.00,,,0.00,,2013-05-26 21:11:00,
2013-05-26 16:22:00,85.0,70.0,30.09,SSW,197,8.0,14.0,61,0.00,,,0.00,,2013-05-26 21:22:00,
2013-05-26 16:33:00,85.0,71.0,30.09,SE,138,5.0,12.0,64,0.00,,,0.00,,2013-05-26 21:33:00,
2013-05-26 16:43:00,85.0,71.0,30.09,SE,138,5.0,12.0,64,0.00,,,0.00,,2013-05-26 21:43:00,
2013-05-26 16:53:00,85.0,70.0,30.09,SSW,201,5.0,16.0,62,0.00,,,0.00,,2013-05-26 21:53:00,
2013-05-26 17:02:00,84.0,70.0,30.09,SSW,196,10.0,20.0,62,0.00,,,0.00,,2013-05-26 22:02:00,
2013-05-26 17:12:00,84.0,70.0,30.09,SSW,196,10.0,20.0,62,0.00,,,0.00,,2013-05-26 22:12:00,
2013-05-26 17:23:00,85.0,70.0,30.09,SSW,192,5.0,12.0,60,0.00,,,0.00,,2013-05-26 22:23:00,
2013-05-26 17:33:00,85.0,71.0,30.08,SW,225,4.0,23.0,64,0.00,,,0.00,,2013-05-26 22:33:00,
2013-05-26 17:42:00,84.0,70.0,30.08,SSE,168,6.0,16.0,62,0.00,,,0.00,,2013-05-26 22:42:00,
2013-05-26 17:53:00,84.0,70.0,30.08,SSE,168,6.0,16.0,62,0.00,,,0.00,,2013-05-26 22:53:00,
2013-05-26 18:02:00,84.0,70.0,30.08,SW,214,5.0,13.0,62,0.00,,,0.00,,2013-05-26 23:02:00,
2013-05-26 18:12:00,84.0,70.0,30.08,SW,214,5.0,13.0,62,0.00,,,0.00,,2013-05-26 23:12:00,
2013-05-26 18:22:00,84.0,70.0,30.08,SSW,201,4.0,11.0,63,0.00,,,0.00,,2013-05-26 23:22:00,
2013-05-26 18:32:00,83.0,70.0,30.07,WSW,238,4.0,18.0,65,0.00,,,0.00,,2013-05-26 23:32:00,
2013-05-26 18:43:00,83.0,70.0,30.07,WSW,238,4.0,18.0,65,0.00,,,0.00,,2013-05-26 23:43:00,
2013-05-26 18:52:00,82.0,70.0,30.07,SSW,192,3.0,13.0,67,0.00,,,0.00,,2013-05-26 23:52:00,
2013-05-26 19:02:00,82.0,70.0,30.07,SSE,167,5.0,18.0,67,0.00,,,0.00,,2013-05-27 00:02:00,
2013-05-26 19:11:00,82.0,70.0,30.07,SSE,167,5.0,18.0,67,0.00,,,0.00,,2013-05-27 00:11:00,
2013-05-26 19:21:00,82.0,70.0,30.07,SW,222,4.0,12.0,68,0.00,,,0.00,,2013-05-27 00:21:00,
2013-05-26 19:32:00,81.0,70.0,30.07,SSW,209,9.0,15.0,69,0.00,,,0.00,,2013-05-27 00:32:00,
2013-05-26 19:42:00,81.0,70.0,30.07,SSW,209,9.0,15.0,69,0.00,,,0.00,,2013-05-27 00:42:00,
2013-05-26 19:52:00,81.0,70.0,30.07,SW,227,3.0,15.0,69,0.00,,,0.00,,2013-05-27 00:52:00,
2013-05-26 20:01:00,81.0,70.0,30.07,SSW,195,1.0,6.0,69,0.00,,,0.00,,2013-05-27 01:01:00,
2013-05-26 20:11:00,81.0,70.0,30.07,SSW,195,1.0,6.0,69,0.00,,,0.00,,2013-05-27 01:11:00,
2013-05-26 20:22:00,80.0,70.0,30.08,South,175,3.0,6.0,71,0.00,,,0.00,,2013-05-27 01:22:00,
2013-05-26 20:31:00,79.0,70.0,30.08,SSW,205,2.0,8.0,73,0.00,,,0.00,,2013-05-27 01:31:00,
2013-05-26 20:42:00,79.0,71.0,30.08,SSW,204,3.0,8.0,76,0.00,,,0.00,,2013-05-27 01:42:00,
2013-05-26 20:52:00,79.0,71.0,30.08,SSW,204,3.0,8.0,76,0.00,,,0.00,,2013-05-27 01:52:00,
2013-05-26 21:01:00,78.0,70.0,30.08,SSW,209,3.0,10.0,77,0.00,,,0.00,,2013-05-27 02:01:00,
2013-05-26 21:11:00,78.0,70.0,30.08,SSW,209,3.0,10.0,77,0.00,,,0.00,,2013-05-27 02:11:00,
2013-05-26 21:22:00,78.0,71.0,30.08,South,187,3.0,8.0,79,0.00,,,0.00,,2013-05-27 02:22:00,
2013-05-26 21:32:00,77.0,70.0,30.08,SSW,193,4.0,10.0,79,0.00,,,0.00,,2013-05-27 02:32:00,
2013-05-26 21:42:00,77.0,70.0,30.08,SSW,193,4.0,10.0,79,0.00,,,0.00,,2013-05-27 02:42:00,
2013-05-26 21:52:00,77.0,70.0,30.09,South,188,2.0,7.0,80,0.00,,,0.00,,2013-05-27 02:52:00,
2013-05-26 22:02:00,77.0,71.0,30.09,South,174,0.0,4.0,81,0.00,,,0.00,,2013-05-27 03:02:00,
2013-05-26 22:11:00,77.0,71.0,30.09,South,174,0.0,4.0,81,0.00,,,0.00,,2013-05-27 03:11:00,
2013-05-26 22:21:00,77.0,71.0,30.09,South,184,0.0,5.0,83,0.00,,,0.00,,2013-05-27 03:21:00,
2013-05-26 22:33:00,77.0,72.0,30.10,SSW,198,1.0,5.0,84,0.00,,,0.00,,2013-05-27 03:33:00,
2013-05-26 22:43:00,77.0,72.0,30.10,SSW,198,1.0,5.0,84,0.00,,,0.00,,2013-05-27 03:43:00,
2013-05-26 22:53:00,76.0,71.0,30.10,South,188,0.0,4.0,85,0.00,,,0.00,,2013-05-27 03:53:00,
2013-05-26 23:02:00,76.0,71.0,30.10,SSW,203,0.0,4.0,85,0.00,,,0.00,,2013-05-27 04:02:00,
2013-05-26 23:12:00,76.0,71.0,30.10,SSW,203,0.0,4.0,85,0.00,,,0.00,,2013-05-27 04:12:00,
2013-05-26 23:23:00,76.0,72.0,30.10,SSW,205,0.0,5.0,87,0.00,,,0.00,,2013-05-27 04:23:00,
2013-05-26 23:33:00,76.0,72.0,30.10,SSW,208,2.0,8.0,87,0.00,,,0.00,,2013-05-27 04:33:00,
2013-05-26 23:43:00,75.0,71.0,30.10,SW,214,327.0,327.0,88,0.00,,,0.00,,2013-05-27 04:43:00,
2013-05-26 23:52:00,75.0,71.0,30.10,SW,214,327.0,327.0,88,0.00,,,0.00,,2013-05-27 04:52:00,